(72832) = 2001 HW14

Discovered at Kitt Peak on 2001-04-23 by Spacewatch.

Orbit

Orbit type: Main Belt

Note: WebGL enabled browser required.

epoch2024-03-31.0
epoch JD2460400.5
perihelion date2021-02-11.93140
perihelion JD2459257.43140
argument of perihelion (°)274.80655
ascending node (°)17.42090
inclination (°)4.52630
eccentricity0.0447840
perihelion distance (AU)2.6598789
Tisserand w.r.t. Jupiter3.3
ΔV w.r.t. Earth (km/sec)10.3
semimajor axis (AU)2.7845837
mean anomaly (°)242.45755
mean daily motion (°/day)0.21211110
aphelion distance (AU)2.909
period (years)4.65
P-vector [x]0.37735392
P-vector [y]-0.81530205
P-vector [z]-0.43918855
Q-vector [x]0.92576768
Q-vector [y]0.34421003
Q-vector [z]0.15644061
absolute magnitude15.86
phase slope0.15
uncertainty0
referenceMPEC 2024-F14
observations used716
oppositions20
arc length (days)12094
first opposition used1991
last opposition used2024
residual rms (arc-secs)0.76
perturbers coarse indicatorM-v
perturbers precise indicator003Ek
first observation date used1991-02-05.0
last observation date used2024-03-17.0
computer nameMPCLINUX
JD of orbit computation2456671.002517
perihelion JD uncertainty (days)3.7017E-04
argument of perihelion uncertainty (°)9.1925E-05
ascending node uncertainty (°)5.0959E-05
inclination uncertainty (°)6.0760E-06
eccentricity uncertainty 3.8593E-08
perihelion distance uncertainty (AU)1.0559E-07
Minimum Orbit Intersection Distances (in AU)
for orbit epoch: 2460400.5, reference: E2024-GH2
Mercury2.20296
Venus1.93286
Earth1.64856
Mars1.16307
Jupiter2.16403
Saturn6.1587
Uranus15.5771
Neptune27.0083

Observations

737 total observations over interval: 1991 02 05.17011 – 2024 03 17.379566
These data are available for download (format description).

Date (UT) J2000 RA J2000 Dec Magn Location Ref
1991 02 05.17011 08 24 09.84 +25 55 29.1 21.3 V 691 – Steward Observatory, Kitt Peak-Spacewatch MPS 78068
1991 02 05.19354 08 24 08.57 +25 55 32.1 21.6 V 691 – Steward Observatory, Kitt Peak-Spacewatch MPS 78068
1991 02 05.21853 08 24 07.08 +25 55 34.0 22.2 V 691 – Steward Observatory, Kitt Peak-Spacewatch MPS 78068
1998 09 19.315441 00 25 25.915 +00 41 18.89 19.75 V 645 – Apache Point-Sloan Digital Sky Survey MPS 79860
1998 09 19.318913 00 25 25.734 +00 41 18.10 20.39   645 – Apache Point-Sloan Digital Sky Survey MPS 79860
1998 10 15.14635 00 04 18.62 -00 49 00.8 20.3 V 691 – Steward Observatory, Kitt Peak-Spacewatch MPS 39170
1998 10 15.16854 00 04 17.65 -00 49 04.2 20.1 V 691 – Steward Observatory, Kitt Peak-Spacewatch MPS 39170
1998 10 15.18949 00 04 16.75 -00 49 07.7 19.7 V 691 – Steward Observatory, Kitt Peak-Spacewatch MPS 39170
2001 03 22.27689 12 37 30.53 -02 35 04.6 19.1 V 691 – Steward Observatory, Kitt Peak-Spacewatch MPS 37683
2001 03 22.29797 12 37 29.35 -02 35 00.8 20.0 V 691 – Steward Observatory, Kitt Peak-Spacewatch MPS 37683
2001 03 22.31926 12 37 28.19 -02 34 56.1 19.7 V 691 – Steward Observatory, Kitt Peak-Spacewatch MPS 37683
2001 03 29.23655 12 31 34.82 -02 08 02.6 18.8 R 699 – Lowell Observatory-LONEOS MPS 37683
2001 03 29.26462 12 31 33.47 -02 07 54.8   699 – Lowell Observatory-LONEOS MPS 37683
2001 03 29.29268 12 31 31.98 -02 07 48.2   699 – Lowell Observatory-LONEOS MPS 37683
2001 03 29.32078 12 31 30.54 -02 07 41.9   699 – Lowell Observatory-LONEOS MPS 37683
2001 04 23.20276 12 12 19.04 -00 46 23.7 20.9 V 691 – Steward Observatory, Kitt Peak-Spacewatch MPS 30331
2001 04 23.22385 12 12 18.25 -00 46 21.1 20.6 V 691 – Steward Observatory, Kitt Peak-Spacewatch MPS 30331
2001 04 23.24461 12 12 17.46 -00 46 18.4 20.2 V 691 – Steward Observatory, Kitt Peak-Spacewatch MPS 30331
2001 04 24.14598 12 11 45.67 -00 44 24.4 20.6 V 691 – Steward Observatory, Kitt Peak-Spacewatch MPS 30331
2001 04 24.16834 12 11 44.88 -00 44 21.1 20.6 V 691 – Steward Observatory, Kitt Peak-Spacewatch MPS 30331
2001 04 24.22561 12 11 42.75 -00 44 14.4 20.6 V 691 – Steward Observatory, Kitt Peak-Spacewatch MPS 30331
2002 07 06.38560 19 59 50.76 -27 58 53.7 19.4   644 – Palomar Mountain/NEAT MPS 58899
2002 07 06.39607 19 59 50.22 -27 58 55.6 19.4   644 – Palomar Mountain/NEAT MPS 58899
2002 07 06.40781 19 59 49.55 -27 58 57.7 19.7   644 – Palomar Mountain/NEAT MPS 58899
2002 07 12.27789 19 54 29.05 -28 15 18.7 19.5   644 – Palomar Mountain/NEAT MPS 58899
2002 07 12.35006 19 54 24.83 -28 15 30.1 19.1   644 – Palomar Mountain/NEAT MPS 58899
2002 07 12.41498 19 54 21.05 -28 15 39.9 19.3   644 – Palomar Mountain/NEAT MPS 58899
2003 10 02.42549 02 48 14.61 +17 58 54.7 20.5 V 691 – Steward Observatory, Kitt Peak-Spacewatch MPS 86179
2003 10 02.45625 02 48 13.57 +17 58 53.6 20.8 V 691 – Steward Observatory, Kitt Peak-Spacewatch MPS 86179
2003 10 02.48223 02 48 12.69 +17 58 53.0 20.5 V 691 – Steward Observatory, Kitt Peak-Spacewatch MPS 86179
2003 10 21.44026 02 34 30.94 +17 31 21.6 19.9 V 691 – Steward Observatory, Kitt Peak-Spacewatch MPS 87939
2003 10 21.46721 02 34 29.49 +17 31 17.4 20.2 V 691 – Steward Observatory, Kitt Peak-Spacewatch MPS 87939
2003 10 21.49358 02 34 28.07 +17 31 13.5 20.0 V 691 – Steward Observatory, Kitt Peak-Spacewatch MPS 87939
2003 10 23.28984 02 32 53.37 +17 26 50.4 19.6 R 699 – Lowell Observatory-LONEOS MPS 87939
2003 10 23.32533 02 32 51.42 +17 26 47.2   699 – Lowell Observatory-LONEOS MPS 87939
2003 10 23.34537 02 32 50.33 +17 26 43.2   699 – Lowell Observatory-LONEOS MPS 87939
2003 10 23.36536 02 32 49.18 +17 26 40.6   699 – Lowell Observatory-LONEOS MPS 87939
2003 10 24.26588 02 32 01.07 +17 24 23.4 19.5   704 – Lincoln Laboratory ETS, New Mexico MPS 87939
2003 10 24.30215 02 31 59.02 +17 24 17.2 20.5   704 – Lincoln Laboratory ETS, New Mexico MPS 87939
2003 10 24.31417 02 31 58.35 +17 24 15.7 19.7   704 – Lincoln Laboratory ETS, New Mexico MPS 87939
2003 10 29.27274 02 27 26.81 +17 10 39.1 20.3   704 – Lincoln Laboratory ETS, New Mexico MPS 89373
2003 10 29.28500 02 27 26.08 +17 10 39.4 19.8   704 – Lincoln Laboratory ETS, New Mexico MPS 89373
2003 10 29.29678 02 27 25.45 +17 10 35.6 19.7   704 – Lincoln Laboratory ETS, New Mexico MPS 89373
2003 10 29.30919 02 27 24.74 +17 10 34.3 19.8   704 – Lincoln Laboratory ETS, New Mexico MPS 89373
2003 11 19.08617 02 09 19.22 +16 06 11.3 20.8 V 691 – Steward Observatory, Kitt Peak-Spacewatch MPS 91613
2003 11 19.11391 02 09 17.92 +16 06 06.4 20.5 V 691 – Steward Observatory, Kitt Peak-Spacewatch MPS 91613
2003 11 19.14197 02 09 16.63 +16 06 01.5 20.1 V 691 – Steward Observatory, Kitt Peak-Spacewatch MPS 91613
2003 11 20.23548 02 08 27.84 +16 02 49.6 20.4   704 – Lincoln Laboratory ETS, New Mexico MPS 91613
2003 11 20.24822 02 08 27.29 +16 02 47.4 20.0   704 – Lincoln Laboratory ETS, New Mexico MPS 91613
2003 11 20.26126 02 08 26.72 +16 02 45.1 20.1   704 – Lincoln Laboratory ETS, New Mexico MPS 91613
2003 11 24.20456 02 05 42.96 +15 51 43.3 20.4   704 – Lincoln Laboratory ETS, New Mexico MPS 92539
2003 11 24.21697 02 05 42.46 +15 51 42.0 20.1   704 – Lincoln Laboratory ETS, New Mexico MPS 92539
2003 11 24.22946 02 05 42.02 +15 51 38.6 20.5   704 – Lincoln Laboratory ETS, New Mexico MPS 92539
2003 11 24.24174 02 05 41.45 +15 51 36.6 20.4   704 – Lincoln Laboratory ETS, New Mexico MPS 92539
2005 01 16.36119 09 04 34.14 +23 24 26.8 20.3   704 – Lincoln Laboratory ETS, New Mexico MPS 125390
2005 01 16.37423 09 04 33.34 +23 24 29.8 20.3   704 – Lincoln Laboratory ETS, New Mexico MPS 125390
2005 01 16.38773 09 04 32.55 +23 24 32.3 20.3   704 – Lincoln Laboratory ETS, New Mexico MPS 125390
2005 01 16.40075 09 04 32.08 +23 24 36.0 19.3 C 704 – Lincoln Laboratory ETS, New Mexico MPS 293924
2005 01 18.41104 09 02 47.42 +23 32 20.3 19.7 V 691 – Steward Observatory, Kitt Peak-Spacewatch MPS 125390
2005 01 18.44482 09 02 45.58 +23 32 28.0 20.1 V 691 – Steward Observatory, Kitt Peak-Spacewatch MPS 125390
2005 01 18.47112 09 02 44.15 +23 32 33.8 20.2 V 691 – Steward Observatory, Kitt Peak-Spacewatch MPS 125390
2005 02 01.27105 08 49 46.83 +24 20 34.5 20.6 R 703 – Catalina Sky Survey MPS 126249
2005 02 01.27905 08 49 46.27 +24 20 34.9 20.2 R 703 – Catalina Sky Survey MPS 126249
2005 02 01.28700 08 49 45.76 +24 20 36.0 20.0 R 703 – Catalina Sky Survey MPS 126249
2005 02 01.29492 08 49 45.25 +24 20 38.4 19.2 R 703 – Catalina Sky Survey MPS 126249
2005 02 14.28781 08 37 44.99 +24 50 40.5 19.4   704 – Lincoln Laboratory ETS, New Mexico MPS 127045
2005 02 14.31279 08 37 43.71 +24 50 43.0 19.7   704 – Lincoln Laboratory ETS, New Mexico MPS 127045
2005 02 14.33745 08 37 42.38 +24 50 44.2 20.0   704 – Lincoln Laboratory ETS, New Mexico MPS 127045
2006 04 07.38978 15 01 09.31 -19 30 28.8 21.0 V 691 – Steward Observatory, Kitt Peak-Spacewatch MPS 168658
2006 04 07.40718 15 01 08.56 -19 30 29.7 20.2 V 691 – Steward Observatory, Kitt Peak-Spacewatch MPS 168658
2006 04 07.42457 15 01 07.91 -19 30 29.8 20.3 V 691 – Steward Observatory, Kitt Peak-Spacewatch MPS 168658
2006 05 04.32319 14 39 37.22 -18 48 31.8 19.1 V G96 – Mt. Lemmon Survey MPS 171252
2006 05 04.32821 14 39 36.93 -18 48 31.2 18.9 V G96 – Mt. Lemmon Survey MPS 171252
2006 05 04.33319 14 39 36.64 -18 48 30.3 19.0 V G96 – Mt. Lemmon Survey MPS 171252
2006 05 04.33811 14 39 36.36 -18 48 29.4 18.9 V G96 – Mt. Lemmon Survey MPS 171252
2006 05 05.26685 14 38 45.68 -18 46 06.4 18.7 R 699 – Lowell Observatory-LONEOS MPS 171252
2006 05 05.28511 14 38 44.71 -18 46 01.7   699 – Lowell Observatory-LONEOS MPS 171252
2006 05 05.30340 14 38 43.66 -18 46 00.1   699 – Lowell Observatory-LONEOS MPS 171252
2006 05 05.32168 14 38 42.57 -18 45 56.4   699 – Lowell Observatory-LONEOS MPS 171252
2006 05 20.24530 14 25 52.22 -18 05 00.0 19.0 R 699 – Lowell Observatory-LONEOS MPS 172570
2006 05 20.25621 14 25 51.60 -18 04 57.8   699 – Lowell Observatory-LONEOS MPS 172570
2006 05 20.26712 14 25 51.08 -18 04 56.1   699 – Lowell Observatory-LONEOS MPS 172570
2006 05 20.27803 14 25 50.58 -18 04 53.2   699 – Lowell Observatory-LONEOS MPS 172570
2006 05 26.242816 14 21 32.035 -17 49 18.29 19.76 V 645 – Apache Point-Sloan Digital Sky Survey MPS 389662
